Terminal Aerodrome Forecast
Issued by NWS Louisville, KY

Home | Current Version | Previous Version | Text Only | Print | Product List | Glossary On
Versions: 1 2 3 4 5 6 7 8 9 10 11 12 13 14 15
877
FTUS43 KLMK 092101 AAB
TAFSDF
TAF AMD
KSDF 092101Z 0921/1024 29007KT P6SM BKN035
     FM092230 29006KT P6SM FEW035 SCT100
     FM101500 VRB04KT P6SM FEW025 SCT080=

USA.gov is the U.S. government's official web portal to all federal, state and local government web resources and services.